Location: Carrières
(48.9495°N, 2.0407°E)
Time: 10:45:44
(UTC+00:00)

SR - Visible Passes

Search period start: 17 April 2024 00:00
Search period end: 27 April 2024 00:00
Orbit: 577 x 863 km, 66.7° (Epoch: 16 April)

Date Brightness Start Highest point End Pass type
(mag) Time Alt. Az. Time Alt. Az. Time Alt. Az.
17 Apr ? 00:47:49 11° ESE 00:47:49 11° ESE 00:49:28 10° E visible
17 Apr ? 02:27:03 40° S 02:28:53 66° ESE 02:34:01 10° NE visible
17 Apr ? 04:06:29 10° W 04:11:10 29° NW 04:15:35 10° NNE visible
18 Apr ? 01:36:23 34° SE 01:36:58 35° ESE 01:41:41 10° NE visible
18 Apr ? 03:15:37 22° WSW 03:18:48 47° NW 03:23:43 10° NNE visible
19 Apr ? 00:45:39 19° ESE 00:45:39 19° ESE 00:48:48 10° ENE visible
19 Apr ? 02:24:53 45° SW 02:26:36 82° NW 02:31:44 10° NE visible
19 Apr ? 04:05:08 10° W 04:09:12 22° NW 04:13:03 10° NNE visible
20 Apr ? 01:34:07 54° SE 01:34:33 55° ESE 01:39:35 10° NE visible
20 Apr ? 03:13:20 17° W 03:16:41 33° NW 03:21:14 10° NNE visible
21 Apr ? 00:43:17 29° E 00:43:17 29° E 00:47:06 10° NE visible
21 Apr ? 02:22:31 37° WSW 02:24:21 55° NW 02:29:20 10° NNE visible
21 Apr ? 04:03:59 10° WNW 04:07:16 17° NNW 04:10:25 10° NNE visible
21 Apr ? 23:52:25 14° E 23:52:25 14° E 23:53:54 10° ENE visible
22 Apr ? 01:31:38 73° SSW 01:32:09 85° SE 01:37:16 10° NE visible
22 Apr ? 03:10:51 12° W 03:14:37 24° NW 03:18:39 10° NNE visible
23 Apr ? 00:40:43 44° E 00:40:43 44° E 00:45:01 10° NE visible
23 Apr ? 02:19:56 26° W 02:22:07 37° NW 02:26:48 10° NNE visible
23 Apr ? 04:03:01 10° NW 04:05:23 13° NNW 04:07:41 10° N visible
23 Apr ? 23:49:44 22° E 23:49:44 22° E 23:52:22 10° ENE visible
24 Apr ? 01:28:57 55° W 01:29:49 64° NW 01:34:50 10° NNE visible
24 Apr ? 03:09:02 10° WNW 03:12:35 18° NNW 03:15:59 10° NNE visible
25 Apr ? 00:37:56 70° E 00:37:56 70° E 00:42:42 10° NE visible
25 Apr ? 02:17:09 17° W 02:19:57 27° NW 02:24:10 10° NNE visible
25 Apr ? 04:02:17 10° NNW 04:03:31 11° NNW 04:04:44 10° N visible
25 Apr ? 23:46:52 33° E 23:46:52 33° E 23:50:20 10° NE visible
26 Apr ? 01:26:04 35° W 01:27:29 43° NW 01:32:16 10° NNE visible
26 Apr ? 03:07:55 10° NW 03:10:36 14° NNW 03:13:12 10° N visible
26 Apr ? 22:55:44 17° E 22:55:44 17° E 22:57:28 10° ENE visible
